Regional Weather Roundup
Issued by NWS Portland, ME

Current Version | Previous Version | Text Only | Print | Product List | Glossary Off
Versions: 1 2 3 4 5 6 7 8 9 10 11 12 13 14 15 16 17 18 19 20 21 22 23 24 25 26 27 28 29 30 31 32 33 34 35 36 37 38 39 40 41 42 43 44 45 46 47 48 49 50
000 ASUS41 KGYX 200505 RWRGYX WEATHER ROUNDUP FOR MAINE AND NEW HAMPSHIRE NATIONAL WEATHER SERVICE GRAY ME 1200 AM EST SUN JAN 20 2019 MEZ002-005-006-010-012-015-018-020-021-024-026-027-029-200600- MAINE CITY SKY/WX TMP DP RH WIND PRES REMARKS PORTLAND LGT SNOW 14 10 84 N13G25 30.23F FOG WCI 0 SANFORD LGT SNOW 13 10 88 NE14 30.18F FOG WCI -2 BAR HARBOR LGT SNOW 6 2 83 N8 30.34F VSB 1 WISCASSET LGT SNOW 10 7 87 VRB6 30.29F FOG ROCKLAND LGT SNOW 13 9 84 NE10 30.28F FOG WCI 0 FRYEBURG LGT SNOW 10 7 87 NE6 30.22F VSB 1 LEWISTONAUBURN LGT SNOW 9 5 84 NE13 30.26F FOG WCI -7 AUGUSTA LGT SNOW 6 3 87 N9 30.28F FOG WATERVILLE LGT SNOW 5 1 83 MISG 30.26F FOG BANGOR LGT SNOW 5 0 79 NE9 30.34F GREENVILLE N/A -1 -9 68 SE8 30.17F MILLINOCKET LGT SNOW -2 -9 72 NE7 30.36F HOULTON CLOUDY -5 -11 75 N7 30.36F HAZE PRESQUE ISLE LGT SNOW -8 -16 67 N7 30.38F FRENCHVILLE FAIR -12 -21 64 N5 30.31F CARIBOU FAIR -9 -19 61 N8 30.36F $$ NHZ002-005-008-009-011-012-014-200600- NEW HAMPSHIRE CITY SKY/WX TMP DP RH WIND PRES REMARKS PORTSMOUTH LGT SNOW 17 13 84 N10 30.15F FOG WCI 4 ROCHESTER LGT SNOW 14 10 84 N12G18 30.17F FOG WCI 0 NASHUA LGT SNOW 22 20 92 N13G18 30.13F FOG WCI 10 MANCHESTER LGT SNOW 18 13 80 N14 30.13F WCI 4 CONCORD LGT SNOW 15 11 83 NE9 30.16F FOG PLYMOUTH LGT SNOW 14 11 89 CALM 30.17F BERLIN LGT SNOW 11 6 81 CALM 30.12F WHITEFIELD CLOUDY 12 5 73 E12G18 30.08F HAZE WCI -2 JAFFREY LGT SNOW 21 19 92 MISG 30.03F VSB 1 KEENE LGT SNOW 23 19 85 N9 30.05F FOG LEBANON LGT SNOW 17 8 67 NE6 30.11F MT WASHINGTON SNOW 1 1 100 S30 N/A VSB 1/8 WCI -24 $$ VTZ005-007-008-200600- VERMONT CITY SKY/WX TMP DP RH WIND PRES REMARKS ST JOHNSBURY N/A 7 4 87 MISG 30.11F MONTPELIER LGT SNOW 6 4 91 CALM 30.10F FOG BURLINGTON LGT SNOW -6 -12 75 N7 30.14F $$ MAZ007-012-024-CTZ003-RIZ002-NYZ038-NYZ072-200600- SOUTHERN NEW ENGLAND AND NY CITY SKY/WX TMP DP RH WIND PRES REMARKS BOSTON LGT SNOW 32 30 92 E22 30.09F VSB 1 WCI 19 WORCESTER LGT SNOW 22 21 96 NE9G18 29.98F VSB 3/4 NANTUCKET CLOUDY 37 36 96 E20G29 30.01F PROVIDENCE LGT SNOW 31 30 96 NE15 30.01F FOG HARTFORD SNOW 27 25 92 N14 29.97F VSB 1/2 WCI 16 ALBANY SNOW 8 2 76 N5 29.99F VSB 1/2 NEW YORK CITY SLEET 35 32 88 E14 29.84F FOG $$ ANZ081-ANZ082-ANZ150-NHZ014-MEZ023>029-200600- COASTAL MARINE OBSERVATIONS STATION/POSITION TIME TEMP WIND PRES WAVE AIR SEA DIR/SP/G HT/PER (UTC) (F) (DEG/KT/KT) (MB) (FT/S) MOUNT DESERT ROC 0500 19 30/ 24/ 27 1024.7F MATINICUS ROCK 0400 19 70/ 26/ 29 1024.9F ISLE OF SHOALS 0400 28 70/ 24/ 27 1021.1F JEFFREYS LEDGE 0408 44 N/A 5/ 5 CASHES LEDGE BUO 0450 25 40 1021.7F 6/ 5 $$ .............KEY.............. WCI - WIND CHILL TC - TEMPERATURE IN CELSIUS VSB - VISIBILITY IN MILES HX - HEAT INDEX FAIR- INDICATES FEW OR NO CLOUDS BELOW 12,000 FT, WITH NO SIGNIFICANT WEATHER AND/OR OBSTRUCTIONS TO VISIBILITY.

USA.gov is the U.S. government's official web portal to all federal, state and local government web resources and services.